map of BQS home
Great Circle Mapper logo
BQS - Airport
Location
City:  Blagoveschensk, Amur, Russian Federation (Russia)
Name:Ignatyevo
ICAO / IATA:UHBB / BQS

Details
Type:Airport (Aerodrome, Airfield)
Use:Public/Civil
Latitude:5025'31"N (50.425394)
Longitude:12724'45"E (127.412478)
Datum:WGS 1984
Elevation:638 ft (194 m)
Variation:12.14W (WMM2015 magnetic declination)
-0.04 annual change
Runways:1
Longest:9256 × 148 ft (2821 × 45 m), paved

Time
Time Zone:UTC+9 (DST+10)

Weather
METAR:UHBB 011030Z 24001MPS CAVOK M09/M10 Q1008 NOSIG RMK QFE739/0985 36820250
TAF:UHBB 010740Z 0109/0209 05003MPS 5000 BR BKN007 OVC070
BECMG 0203/0205 34003MPS 2100 -SN BR

Related Locations
Nearby:
Farthest:PSY: 12195 mi / 19626 km
Stanley (Port Stanley) [Port Stanley], FK

Find:

   beyond  
but within

Other Information
Maps:
NOTAMs:
Links:
Sources:

  
flag of Russian Federation (Russia)   

Sectional Chart

Flight Planning
at skyvector.com

Satellite Image

Google Maps Satellite View

 

Copyright © 2004-2015 Karl L. Swartz. All rights reserved.
The Great Circle Mapper name and logo are trademarks of the Great Circle Mapper.
All other trademarks mentioned herein belong to their respective owners.
Please see credits for attibutions and further copyright information.

  Follow gcmap on Facebook Follow gcmap on Twitter Follow gcmap on Google+

hCard Microformat

Geo Microformat